Location: *
(2.5500°S, 65.9667°W)
Time: 02:12:46
(UTC+00:00)

SRMSAT - Visible Passes

Search period start: 30 June 2022 00:00
Search period end: 10 July 2022 00:00
Orbit: 848 x 865 km, 20.0° (Epoch: 29 June)

Date Brightness Start Highest point End Pass type
(mag) Time Alt. Az. Time Alt. Az. Time Alt. Az.
30 Jun ? 01:30:09 10° NNW 01:31:24 11° NNW 01:31:24 11° NNW visible
30 Jun ? 07:05:54 12° NE 07:05:54 12° NE 07:06:27 10° ENE visible
30 Jun ? 08:47:56 18° NW 08:51:58 46° NNE 08:57:37 10° E visible
30 Jun ? 23:24:16 10° WNW 23:28:52 23° NNW 23:33:27 10° NNE visible
01 Jul ? 08:36:30 33° NW 08:38:53 52° NNE 08:44:39 10° E visible
01 Jul ? 23:11:31 10° WNW 23:15:50 20° NNW 23:20:07 10° NNE visible
02 Jul ? 08:25:03 56° NNW 08:25:48 60° NNE 08:31:38 10° E visible
02 Jul ? 22:58:49 10° WNW 23:02:48 18° NNW 23:06:46 10° NNE visible
03 Jul ? 08:13:34 60° ENE 08:13:34 60° ENE 08:18:36 10° ESE visible
03 Jul ? 09:56:19 10° W 10:01:56 44° SSW 10:07:34 10° SE visible
03 Jul ? 22:46:11 10° NW 22:49:46 16° NNW 22:53:23 10° NNE visible
04 Jul ? 08:02:01 38° ESE 08:02:01 38° ESE 08:05:33 10° ESE visible
04 Jul ? 09:44:03 13° W 09:48:51 39° SSW 09:54:22 10° SE visible
05 Jul ? 07:50:25 23° ESE 07:50:25 23° ESE 07:52:28 10° ESE visible
05 Jul ? 09:32:27 20° WSW 09:35:48 35° SSW 09:41:10 10° SE visible
06 Jul ? 07:38:43 13° ESE 07:38:43 13° ESE 07:39:22 10° ESE visible
06 Jul ? 09:20:45 25° SW 09:22:46 31° SSW 09:27:58 10° SE visible
07 Jul ? 09:08:57 27° SSW 09:09:44 28° SSW 09:14:45 10° SE visible
08 Jul ? 08:57:05 25° S 08:57:05 25° S 09:01:31 10° SE visible
09 Jul ? 08:45:08 21° S 08:45:08 21° S 08:48:18 10° SE visible
